Location: Paddlesworth
(51.1000°N, 1.1333°E)
Time: 23:01:54
(UTC+00:00)

USA 307 - Pass Details

Date: 11 May 2021
Orbit: 566 x 577 km, 54.0° (Epoch: 10 May)

Event Time Altitude Azimuth Distance (km) Brightness Sun altitude
Rises 21:06:16 0° 292° (WNW) 2,777 7.6 -11.9°
Reaches altitude 10° 21:08:31 10° 290° (WNW) 1,879 6.5 -12.1°
Maximum altitude 21:12:45 65° 209° (SSW) 634 3.0 -12.5°
Enters shadow 21:15:37 20° 131° (SE) 1,356 4.2 -12.8°
